#timestamp,LO_Frequency,Hit,StdDev 
1603388695.1,286047065.6,P
1603388696.0,286047065.6,P
1603388715.8,286047068.0,P
1603388735.6,286047066.6,Y
1603388755.5,286047001.1,P
1603388775.3,286047000.3,N
1603388795.2,286047002.8,N
1603388815.9,286047002.4,N
1603388835.7,286047002.1,N
1603388855.6,286047002.6,N
1603388875.4,286047000.2,N
1603388895.3,286047001.4,N
1603388915.1,286047003.8,N
1603388916.0,286047003.8,N
1603388935.8,286047001.6,N
1603388955.7,286047002.6,N
1603388975.5,286047003.1,N
1603388995.3,286047003.5,N
1603389015.2,286047003.6,N
1603389035.0,286047002.9,N
1603389035.9,286047002.9,N
1603389055.8,286047002.9,N
1603389075.6,286047004.9,N
1603389095.4,286047007.0,N
1603389115.3,286047006.1,N
1603389135.1,286047008.4,N
1603389155.9,286047008.9,N
1603389175.7,286047007.8,N
1603389195.5,286047007.9,N
1603389215.4,286047010.7,N
1603389235.2,286047010.0,N
1603389255.0,286047009.7,N
1603389256.0,286047009.7,N
1603389275.8,286047012.3,N
1603389295.6,286047009.4,N
1603389315.5,286047009.3,N
1603389335.3,286047011.5,Y
1603389355.1,286047006.5,P
1603389375.9,286047006.2,P
1603389395.7,286047008.0,P
1603389415.6,286047006.4,Y
1603389435.4,286046999.9,P
1603389455.2,286047003.9,N
1603389475.1,286047003.1,N
1603389476.0,286047003.1,N
1603389495.8,286047003.2,N
1603389515.6,286047005.4,N
1603389535.5,286047004.6,N
1603389555.3,286047006.4,Y
1603389575.2,286047004.2,P
1603389595.9,286047003.8,P
